Wind_Speed
44 44 43 42 41 41 40 40 39 39 38 38 38 37 37 36 35 35 34 34 33 33 32 32 31 31 30 30 29 29 29 28 28 28 28 28 27 27 26 26 26 25 25 25 25 24 24 23 23 22 21 21 20 19 18 18 17 17 17 17 17 16 16 16 16 16 15 14 13 12 12 13 13 12 12 12 14 13 12 15 16 16 17 16 14 12 11 10
46 45 45 44 43 43 42 42 41 40 40 39 39 39 38 37 37 36 35 35 34 34 33 33 32 32 32 31 30 30 29 29 29 29 29 28 28 28 27 27 27 26 26 26 26 25 25 24 23 23 22 22 21 20 19 19 18 18 18 17 17 17 16 16 16 16 16 15 14 13 12 13 14 13 13 14 16 13 12 14 15 15 16 17 16 15 13 12
47 47 46 46 45 44 44 43 43 42 41 41 41 40 40 39 39 38 37 36 35 35 34 34 33 33 32 32 31 31 30 30 30 30 30 29 29 28 28 28 27 27 27 27 26 26 25 25 24 24 23 23 22 21 20 20 19 19 18 18 18 17 17 17 17 16 17 17 16 14 13 14 14 14 14 16 17 14 13 15 15 15 15 16 17 16 16 14
48 48 48 47 47 46 46 45 44 44 43 43 42 42 41 41 40 39 39 38 37 36 35 35 34 34 33 33 32 32 31 31 31 31 30 30 29 29 29 29 28 28 27 27 27 27 26 26 26 25 24 24 23 22 21 21 20 20 19 18 18 18 18 18 17 17 18 18 18 16 15 15 15 14 15 17 17 16 16 16 16 17 16 16 17 17 17 16
50 50 50 49 49 48 47 47 46 45 45 45 44 44 43 42 41 41 41 40 39 38 37 36 36 35 34 34 34 33 32 32 32 32 31 30 31 30 30 30 29 29 28 28 28 28 27 27 27 26 26 25 25 23 22 22 21 21 20 20 19 19 19 18 18 19 19 20 20 18 17 17 16 15 17 19 18 18 17 17 17 18 18 17 17 18 19 18
51 51 51 51 50 50 49 48 48 47 47 46 46 45 45 44 43 42 42 41 41 40 38 38 37 36 36 35 35 34 33 33 34 34 33 32 32 32 31 31 30 30 29 29 29 28 28 28 28 27 27 26 26 25 24 23 22 22 22 21 20 19 20 19 19 20 20 21 21 19 18 18 18 17 19 21 20 19 18 18 19 19 19 19 18 19 19 19
51 51 51 52 52 52 51 50 50 49 48 48 47 47 46 46 45 44 43 43 42 41 41 40 39 38 37 36 36 36 34 34 35 35 34 34 33 33 32 32 31 31 31 30 30 30 29 29 29 28 28 27 27 26 25 25 24 23 23 22 21 21 21 20 21 21 22 23 22 20 19 19 19 18 20 22 22 21 20 20 20 20 20 20 20 19 20 20
51 51 52 52 52 53 53 52 51 51 50 49 49 48 48 47 47 46 45 44 43 42 42 41 41 40 38 38 37 37 36 35 37 37 35 35 35 34 34 33 33 32 32 32 32 31 31 30 30 29 29 28 28 27 27 26 26 25 25 24 23 22 22 22 22 23 24 24 24 21 20 21 19 19 21 23 24 23 22 22 22 22 21 21 21 21 21 21
50 51 52 52 53 53 53 53 53 52 52 51 50 50 49 49 48 48 47 45 44 43 43 42 42 41 40 39 39 40 38 36 38 39 38 37 36 35 35 35 34 34 33 33 33 33 32 31 31 31 30 30 29 29 28 28 27 27 26 25 24 23 22 23 23 25 26 26 25 23 22 22 21 21 22 24 25 25 24 24 24 24 23 22 22 22 23 23
50 50 51 52 52 53 53 54 54 54 53 53 52 51 50 50 49 49 48 47 46 45 44 43 43 42 42 41 41 42 40 38 40 40 39 38 37 37 36 36 36 35 35 34 34 34 33 33 33 32 32 32 31 30 30 29 29 28 28 26 25 24 23 24 25 26 28 28 26 24 23 23 22 22 23 24 25 25 25 25 26 26 25 24 24 25 25 26
50 50 51 51 52 53 54 54 54 55 55 54 54 53 52 51 51 50 50 49 48 47 46 44 44 44 44 43 44 45 42 40 41 41 40 39 38 37 37 37 37 36 35 35 35 35 34 34 34 34 33 33 33 32 31 31 30 30 29 28 26 25 25 26 27 28 29 29 27 26 25 25 24 24 25 25 26 26 26 26 26 25 25 26 26 27 27 27
52 51 50 51 51 52 53 54 54 55 55 56 55 55 54 53 53 52 52 51 50 49 48 47 46 46 45 45 47 47 44 42 42 41 40 40 39 39 38 38 37 36 36 35 35 35 35 35 35 35 35 35 34 33 33 32 32 31 31 29 28 27 27 28 29 29 28 28 28 27 27 26 25 25 26 26 26 27 28 28 27 26 25 26 27 27 28 28
55 53 51 51 51 52 52 53 54 54 55 56 56 56 56 55 55 54 53 53 52 51 51 50 49 48 47 47 49 48 45 44 43 42 41 40 39 39 39 38 37 37 36 35 35 35 35 35 35 35 35 35 35 35 34 34 33 32 31 31 30 30 30 31 30 28 26 27 27 28 29 28 26 27 27 26 27 27 28 28 27 27 26 26 26 27 28 28
58 56 54 53 53 53 53 53 53 53 54 55 56 56 56 56 56 55 55 54 54 53 52 52 50 49 47 48 50 49 47 46 44 43 42 40 40 40 40 39 38 37 37 36 36 35 35 35 35 35 35 36 36 35 35 35 34 33 32 32 32 33 34 32 29 27 25 25 26 27 29 30 28 28 28 27 28 28 28 28 27 27 26 26 26 27 28 28
59 58 57 56 55 55 54 54 53 53 53 54 55 56 56 57 56 56 56 55 55 54 53 52 51 50 48 49 51 51 49 48 46 44 43 43 42 42 41 40 39 38 38 37 37 37 36 35 35 35 35 36 36 36 35 34 34 33 32 33 35 36 35 31 28 27 25 25 26 27 29 31 30 28 28 28 29 28 28 28 28 27 27 26 27 28 28 29
62 60 59 58 58 57 56 56 55 54 54 54 55 55 56 57 57 57 57 56 56 55 54 53 52 51 49 50 52 52 51 49 47 46 46 46 44 43 42 41 40 40 40 39 38 38 37 36 35 35 36 37 37 37 35 33 34 33 33 35 37 37 36 32 28 27 25 25 26 27 29 33 32 29 29 29 29 29 29 29 29 29 28 28 29 29 30 31
65 64 62 61 60 59 59 58 57 56 55 54 54 55 56 56 57 58 57 57 57 56 56 54 54 53 50 51 53 53 51 50 49 49 48 48 47 46 45 43 43 42 42 41 40 40 39 37 36 37 38 39 39 36 33 33 34 33 34 36 37 37 36 34 30 27 26 25 27 29 31 33 33 31 30 30 30 30 31 31 31 31 30 30 31 31 31 32
67 66 65 63 63 61 60 60 59 58 57 56 55 55 55 56 57 57 58 58 58 57 57 56 56 53 50 51 53 53 53 51 51 51 50 50 49 48 47 46 46 45 44 43 42 42 40 39 38 39 41 41 39 35 33 34 34 33 34 35 36 37 37 37 33 28 27 27 28 30 32 34 33 32 32 31 31 32 32 32 32 32 32 32 33 33 34 34
68 67 67 65 65 65 63 61 60 59 59 58 56 55 55 55 56 57 58 58 58 58 58 57 56 54 52 53 55 54 55 53 52 52 51 50 50 50 50 49 48 48 47 46 45 44 42 41 40 42 45 42 38 36 36 35 35 34 34 34 36 37 38 39 35 29 29 29 30 32 33 35 35 33 33 34 34 33 33 34 34 34 34 34 34 35 35 36
69 69 68 67 66 67 66 63 61 60 60 59 58 56 56 55 56 56 57 58 59 59 58 56 56 55 54 55 56 56 56 55 54 54 53 52 52 51 51 50 51 51 50 49 47 46 45 42 43 47 46 41 39 39 37 36 36 35 35 35 36 37 40 41 36 32 32 30 33 35 34 36 37 35 35 36 36 36 35 35 35 34 34 35 35 36 37 37
71 70 69 68 67 67 69 67 63 61 61 60 59 58 57 58 58 57 57 57 57 58 57 56 56 55 56 57 58 58 57 57 56 56 55 55 54 53 52 52 53 53 52 51 49 49 48 44 47 50 46 43 42 41 39 38 38 37 37 37 37 39 41 41 38 35 34 32 34 36 36 37 38 37 37 38 38 38 37 36 35 35 35 36 37 37 38 39
70 71 70 69 67 67 69 69 66 63 62 61 60 61 61 61 60 58 58 57 56 56 55 54 54 54 56 57 58 59 58 58 58 58 57 57 56 55 55 55 54 54 53 52 52 52 49 47 51 51 47 47 46 43 42 41 40 40 39 38 38 41 42 41 40 38 36 35 36 37 37 38 38 39 40 40 40 40 38 37 36 36 37 37 38 39 39 40
69 70 70 70 69 68 68 70 69 65 64 63 63 65 65 64 62 61 60 57 56 56 55 54 53 53 55 55 57 58 58 58 58 59 59 58 58 58 57 57 56 55 53 54 54 53 50 50 53 53 51 50 49 46 45 44 43 42 41 40 41 44 44 42 42 41 39 38 38 39 38 39 40 41 42 42 41 40 38 38 38 38 39 39 39 40 41 41
71 70 70 70 71 69 68 69 69 66 67 67 67 68 68 66 65 64 62 59 56 56 56 55 54 53 55 56 57 57 57 58 59 59 59 59 60 60 59 59 58 56 55 57 56 54 52 52 54 55 54 53 51 49 49 47 46 45 44 44 45 46 46 44 43 43 41 40 41 41 39 41 43 43 43 43 42 40 40 40 40 40 40 40 41 42 43 44
76 73 70 70 71 71 70 68 67 68 70 70 71 72 71 68 68 67 65 62 56 54 57 56 54 54 55 56 56 57 58 58 59 59 60 61 61 61 60 60 59 57 59 60 58 54 53 54 56 57 56 55 53 52 52 52 49 46 47 48 49 48 48 47 45 44 43 42 44 43 40 41 45 45 44 44 42 41 41 41 41 41 41 42 43 45 45 46
80 77 73 71 71 72 71 67 67 71 72 72 75 76 73 70 71 69 69 66 56 52 57 57 55 54 55 56 56 59 59 56 58 60 60 61 62 62 61 60 59 60 61 62 58 54 55 57 58 57 56 56 54 54 56 54 50 47 49 52 51 50 50 49 48 46 44 43 45 45 43 42 45 46 46 44 43 42 43 43 43 43 44 45 46 47 48 47
82 80 78 75 73 72 71 69 70 73 72 75 78 78 75 74 73 71 71 69 55 50 56 58 56 55 55 57 58 60 58 54 58 61 60 61 61 61 60 58 60 61 62 62 58 55 58 60 59 58 58 57 56 57 58 56 51 49 52 53 52 52 52 50 49 48 45 44 45 46 46 44 43 46 47 45 43 44 44 45 44 45 46 48 49 49 49 49
82 82 82 80 78 75 72 71 72 72 72 77 79 79 77 76 76 73 74 70 54 48 55 58 58 58 57 58 60 61 58 57 60 61 61 62 61 60 59 58 60 61 61 60 57 57 60 61 60 60 59 58 59 60 59 57 54 52 53 54 54 55 53 52 50 48 46 45 44 47 49 45 42 45 47 45 45 46 46 47 47 47 49 50 51 51 51 50
82 83 82 82 82 79 75 71 70 71 74 78 80 81 80 79 78 76 77 69 51 47 55 59 60 60 59 60 61 62 61 60 61 61 63 64 62 61 60 60 60 60 59 59 57 58 60 61 62 62 61 61 62 61 60 60 57 55 55 56 56 56 54 52 50 49 48 45 44 49 51 47 43 43 46 46 46 47 48 48 49 50 51 52 53 52 52 52
83 83 83 83 83 81 78 73 71 72 77 81 83 83 83 83 80 80 78 65 51 49 54 58 61 61 62 63 63 63 62 62 62 62 63 64 63 63 61 61 61 60 60 59 58 58 59 60 62 62 63 64 64 63 63 62 60 58 58 58 58 56 54 53 51 50 49 45 46 52 52 49 44 42 46 48 48 49 50 51 51 52 54 54 54 54 54 55
85 85 85 84 83 82 80 76 74 76 79 82 84 87 87 85 84 84 76 62 56 56 54 56 59 61 64 64 64 65 64 64 64 63 63 63 63 62 60 61 61 61 60 59 58 59 59 59 60 62 62 63 64 65 65 64 62 61 59 59 59 56 54 53 52 52 50 47 49 53 52 49 45 43 47 49 49 51 52 53 54 55 56 56 55 55 56 57
89 89 88 87 86 85 82 79 78 80 82 82 84 87 88 88 88 83 72 63 63 61 55 55 57 60 65 66 66 67 67 66 65 64 63 62 61 60 60 61 61 61 59 58 60 61 60 60 60 61 61 62 64 65 65 64 63 62 59 59 59 57 55 54 53 54 52 50 51 52 52 50 47 47 49 50 51 53 53 55 56 57 58 58 57 57 58 59
91 92 92 91 89 87 85 83 83 84 84 83 84 84 86 91 89 79 70 68 68 63 58 59 59 62 66 67 68 69 69 69 67 65 64 63 62 60 60 60 60 60 59 59 60 60 59 59 60 61 62 63 64 65 64 64 63 61 60 60 59 57 56 55 55 55 53 52 52 52 52 50 48 51 53 52 53 55 56 57 58 59 59 60 60 61 61 62
94 94 94 94 92 91 89 88 87 87 85 86 85 85 88 90 83 74 72 70 68 66 63 63 64 66 67 68 69 70 71 70 68 67 66 65 63 62 61 61 60 59 58 58 59 60 60 59 60 62 63 63 64 64 64 63 62 61 61 60 59 58 59 57 57 56 54 54 54 53 52 51 51 54 56 55 56 57 59 60 60 61 61 62 63 64 64 65
96 97 97 97 96 94 92 91 90 89 88 88 88 89 90 85 76 72 73 71 70 70 67 67 69 70 70 69 69 70 71 70 70 70 69 67 66 64 63 62 60 60 59 59 59 60 60 59 60 62 62 63 63 63 63 63 62 62 62 60 60 62 62 60 58 57 56 56 55 54 54 54 54 56 57 58 60 61 63 63 63 63 64 65 66 67 68 70
98 99 99 99 97 95 94 94 93 91 92 92 92 92 89 81 74 74 74 74 74 73 72 73 73 72 70 68 67 68 70 70 71 72 71 70 68 65 64 64 64 63 63 63 62 61 60 59 60 62 62 63 63 63 64 63 63 63 62 61 63 65 64 62 60 59 59 57 55 56 57 57 58 58 59 62 64 65 65 65 66 67 67 69 70 71 72 74
99 100 100 98 96 95 95 95 95 95 95 96 97 93 87 82 80 79 77 77 76 75 76 76 75 72 69 67 66 67 68 69 70 71 72 72 69 67 66 68 68 67 67 68 67 64 62 61 61 63 63 64 64 64 64 64 64 63 63 64 66 66 65 64 63 61 61 60 57 58 59 59 61 61 63 65 67 68 68 69 70 71 72 73 73 74 75 77
99 100 100 97 96 96 95 96 97 98 98 99 99 93 87 85 85 83 81 79 77 77 78 77 76 74 73 70 68 69 70 69 68 70 72 72 71 69 71 72 71 70 71 72 70 67 65 64 63 64 64 64 65 65 64 64 65 65 66 67 67 66 66 66 66 65 64 63 61 61 62 62 63 65 67 69 70 71 72 73 74 75 75 76 76 77 78 80
99 100 100 98 98 98 96 96 98 100 101 103 100 93 88 87 86 85 85 82 80 79 78 77 77 77 76 74 72 73 73 70 69 70 71 71 70 69 72 74 74 74 75 75 73 70 69 67 66 66 66 66 65 65 64 65 67 68 68 68 68 67 68 68 69 68 67 67 66 64 64 64 66 69 71 73 75 77 77 78 78 78 79 79 79 79 80 81
101 102 99 97 98 99 98 99 100 102 104 105 102 96 91 90 88 88 87 85 83 82 79 78 80 80 78 76 76 76 75 73 71 70 70 69 68 67 70 73 74 76 77 77 75 73 72 71 70 70 70 68 67 67 68 69 69 68 68 69 69 70 70 71 71 71 71 71 69 67 65 65 67 70 73 75 77 79 80 81 81 81 81 80 81 81 83 83
102 102 98 95 95 97 99 101 102 104 105 105 102 98 95 94 91 89 88 87 85 84 82 81 82 82 80 78 78 77 77 75 73 72 71 69 68 69 70 73 75 76 78 77 76 75 75 74 74 73 73 72 71 72 72 71 70 70 70 70 71 73 74 75 74 74 74 73 71 69 67 65 67 70 72 74 77 78 80 81 81 81 81 82 83 84 85 86
103 103 100 97 96 98 99 101 102 103 103 103 102 100 99 97 94 92 90 89 87 86 85 84 83 83 82 80 80 79 79 78 76 75 74 72 72 72 74 75 76 76 77 77 77 78 78 77 76 75 74 75 75 75 75 74 73 72 71 72 74 75 76 78 77 75 75 74 72 72 69 66 67 71 72 74 76 77 79 80 82 82 83 84 85 87 88 89
105 104 102 100 100 101 102 102 103 103 101 100 102 104 103 100 97 95 92 90 89 88 87 86 85 85 84 83 83 83 82 81 79 78 77 76 76 76 76 77 78 78 79 79 79 81 82 80 78 77 76 76 76 76 77 77 76 76 75 76 76 76 77 78 77 76 75 74 74 75 73 71 72 75 77 78 78 80 81 82 83 84 85 87 88 90 92 93
106 106 105 104 103 104 106 105 104 102 100 100 103 105 104 101 97 95 94 93 91 90 89 88 87 87 87 87 87 86 86 85 82 80 79 79 78 79 79 79 79 80 81 81 82 84 84 82 80 78 77 76 76 76 76 77 80 81 81 79 78 77 78 79 79 79 78 75 76 78 77 77 79 81 83 84 84 86 87 87 87 88 89 90 91 92 94 95
109 108 108 106 106 107 108 107 105 103 101 101 102 102 102 101 97 93 93 95 94 93 91 90 89 89 89 89 89 88 88 87 85 83 81 80 80 81 82 82 81 81 82 84 85 87 86 83 79 76 74 75 77 77 77 79 80 80 78 78 79 80 80 81 82 82 80 78 80 81 81 81 83 85 87 87 88 89 91 91 92 92 92 91 92 93 95 95
113 111 111 110 109 109 109 108 106 104 103 103 102 101 101 100 97 95 94 94 95 94 93 92 91 92 91 90 89 88 87 87 86 84 83 82 81 81 83 83 83 83 84 85 87 89 87 83 78 74 73 74 77 78 79 80 79 76 74 75 77 79 81 82 82 81 81 81 80 80 84 86 87 89 90 89 89 91 92 92 92 92 92 93 94 95 97 97
118 115 112 111 111 112 111 109 107 106 105 105 105 103 101 100 99 98 97 95 94 94 93 93 93 93 93 92 91 90 89 88 87 86 84 83 82 82 83 85 85 85 86 87 88 90 89 85 80 77 77 78 79 80 80 80 79 77 75 74 76 78 81 82 82 82 83 83 79 79 85 88 87 89 91 90 90 92 92 92 92 92 94 96 97 98 99 101
122 119 115 113 112 112 112 110 109 108 107 107 107 105 102 100 99 99 98 96 95 94 94 94 93 92 92 92 93 94 93 92 91 89 87 86 86 86 87 88 89 89 89 90 91 92 92 90 86 84 83 82 82 83 82 80 79 78 76 76 78 80 82 83 83 84 86 86 84 84 86 86 85 89 92 93 93 94 94 93 94 96 98 99 101 102 103 105
122 122 121 118 115 113 113 111 110 110 109 109 109 107 104 102 100 98 98 98 97 96 95 95 94 93 93 93 93 94 94 94 93 91 90 90 90 90 91 91 91 91 91 92 93 93 93 93 91 90 89 86 85 85 84 83 82 81 81 81 82 83 84 84 85 87 89 90 89 90 90 87 86 91 95 97 97 97 97 97 98 100 101 102 103 104 105 107
121 121 123 123 120 118 116 115 113 112 111 110 110 109 107 105 102 100 99 99 99 98 98 97 96 95 95 95 95 94 94 95 94 94 93 93 93 93 94 95 94 94 94 94 94 94 94 93 93 94 94 92 88 87 88 88 88 87 85 84 85 86 87 88 89 91 93 93 93 94 93 90 91 96 101 101 101 101 101 101 102 102 102 101 102 103 104 105
122 122 123 124 124 122 120 118 117 116 115 114 112 111 109 108 106 104 103 102 101 100 100 99 98 98 98 98 98 97 97 97 97 97 96 96 96 96 97 98 98 98 98 98 98 97 96 96 96 98 99 97 93 93 93 92 93 91 86 84 87 90 93 95 96 95 96 96 96 96 93 92 95 100 102 103 103 103 104 103 103 102 101 101 101 102 104 105
124 123 123 124 124 124 123 121 120 119 119 117 116 114 111 109 108 107 106 105 105 104 103 102 101 101 101 101 100 100 99 99 100 100 99 99 99 100 101 101 101 101 101 102 102 101 101 100 100 101 103 102 100 98 97 97 97 91 83 83 90 95 98 99 98 96 97 98 97 95 92 91 95 99 101 103 105 105 105 104 104 103 102 102 103 105 106 106
Wind_Direction
233 234 234 235 236 237 238 239 240 241 242 243 244 245 246 247 248 250 251 252 253 255 257 258 259 260 261 262 262 263 263 263 264 264 265 266 267 268 269 270 271 272 273 273 273 273 273 273 273 275 276 277 278 278 279 281 282 284 286 288 289 291 294 295 296 298 298 298 299 302 302 299 298 296 296 292 289 297 300 291 290 296 299 300 299 298 298 299
234 234 234 235 236 237 238 239 240 242 243 244 245 245 246 247 248 249 251 252 253 254 255 257 258 260 260 261 262 262 262 263 263 264 264 265 266 267 268 269 269 270 271 271 272 272 273 273 273 273 274 275 276 277 279 280 281 283 286 287 289 291 293 294 295 296 296 294 293 295 295 293 294 295 296 293 292 300 297 289 291 292 294 296 297 299 298 296
236 235 235 235 236 237 238 239 240 242 243 244 245 246 247 247 248 249 250 251 253 253 254 256 257 258 260 260 261 261 261 262 263 263 264 265 266 267 267 267 268 268 269 270 271 272 272 273 273 274 274 275 276 278 280 281 282 284 286 286 288 290 291 292 294 294 293 292 291 290 289 287 288 292 293 291 292 296 291 289 292 289 287 289 292 295 295 294
239 237 236 235 235 236 237 238 240 241 243 244 246 247 247 248 248 249 250 250 252 253 254 255 256 257 258 259 260 260 260 260 262 262 263 264 265 265 266 266 267 268 268 269 270 271 271 272 272 273 274 275 277 279 280 281 283 284 284 285 287 289 289 290 291 291 292 292 290 289 288 286 285 287 288 286 289 291 289 289 291 289 287 286 287 289 290 291
241 240 238 237 236 236 236 237 238 240 241 243 245 246 247 248 249 249 249 250 251 252 253 255 255 256 257 258 259 259 259 260 260 261 261 262 263 264 265 265 266 267 268 268 269 270 270 271 272 272 274 275 277 278 279 280 281 282 283 284 286 288 289 290 291 291 291 290 289 289 289 288 287 288 285 282 283 285 286 288 289 289 290 288 287 287 288 288
243 242 241 239 238 237 237 236 237 238 239 241 243 245 247 248 248 249 249 249 250 251 252 254 255 255 256 257 257 258 258 259 260 260 260 260 262 262 263 264 265 266 267 267 268 269 269 271 271 273 274 275 277 278 278 279 279 280 282 283 285 287 288 290 291 291 290 288 288 289 291 290 290 291 288 284 282 282 283 285 285 287 289 289 288 288 288 288
243 243 243 242 240 239 238 238 237 237 238 239 241 243 245 247 248 248 249 249 249 250 251 252 254 255 255 256 256 257 257 258 259 259 259 260 260 261 262 263 264 265 266 267 267 268 269 270 272 273 275 276 277 277 278 278 279 280 281 282 284 285 287 290 291 290 288 287 287 290 292 290 292 293 290 288 286 284 285 285 284 284 285 287 288 289 289 288
243 244 244 244 243 242 241 240 239 238 238 239 240 241 243 245 247 248 248 249 249 249 250 251 252 254 255 255 256 256 256 257 259 259 258 258 259 260 261 262 263 264 265 266 267 268 269 270 272 273 274 274 275 275 276 277 278 278 279 281 282 284 287 289 290 289 287 286 287 290 292 291 292 292 290 289 288 288 288 287 285 284 283 285 287 288 287 287
244 244 244 245 245 244 243 242 241 240 240 239 240 240 241 243 245 247 248 249 249 249 250 250 251 253 254 255 255 255 254 255 258 259 258 258 259 260 261 261 262 263 264 265 267 268 270 271 272 273 273 273 274 274 275 276 277 278 278 279 281 284 286 288 288 287 285 286 288 291 292 292 293 291 288 288 288 289 290 290 289 288 288 288 288 288 288 288
244 244 244 244 245 246 245 244 243 242 241 241 240 240 241 242 244 245 247 248 248 249 249 250 250 251 253 253 255 255 254 254 256 258 259 259 259 260 261 262 263 263 265 266 267 268 269 270 271 272 272 272 273 274 275 276 277 278 279 280 282 284 285 286 285 284 283 285 289 292 293 292 291 289 287 287 287 289 290 290 290 291 293 294 293 293 292 292
245 244 244 244 245 246 246 246 245 244 243 242 241 241 241 242 242 244 245 246 247 248 249 249 249 250 251 252 253 254 253 253 255 257 259 260 260 261 262 263 264 265 266 267 268 269 269 270 270 270 271 271 272 274 275 276 277 278 279 281 283 283 284 282 281 280 282 286 290 292 291 289 289 288 286 286 288 289 289 288 289 291 293 294 294 294 293 293
246 246 245 245 245 246 246 247 247 247 246 244 243 242 242 242 242 243 244 245 246 247 247 248 248 248 249 251 252 253 253 253 255 257 258 260 261 263 263 264 265 266 267 268 268 269 269 269 269 270 270 271 272 273 274 274 275 277 279 281 282 282 281 277 276 277 282 287 290 291 289 287 287 286 285 285 287 287 286 287 288 289 290 290 290 290 290 290
245 246 246 247 247 246 247 247 248 248 248 247 246 244 244 244 243 243 244 244 245 246 246 247 247 247 248 250 252 253 254 254 255 257 258 260 262 263 264 265 266 266 267 268 268 268 268 268 268 268 269 270 270 271 272 273 274 275 278 280 280 279 275 273 274 277 282 285 288 289 288 287 286 284 283 284 284 283 283 285 285 286 286 286 287 287 287 288
242 243 245 246 247 248 248 248 248 248 249 249 248 247 246 245 245 245 245 245 245 246 247 247 248 249 249 251 252 253 254 254 255 256 258 260 261 262 263 265 265 266 267 267 267 267 267 267 267 267 268 268 269 269 269 271 273 274 277 278 277 274 271 272 275 278 280 282 285 286 286 286 284 282 283 283 282 281 281 281 282 282 283 284 285 285 286 287
239 240 242 244 245 247 248 248 248 248 248 249 249 248 248 247 246 246 246 246 246 247 247 248 249 250 250 252 253 254 254 254 255 256 258 259 260 261 262 263 265 265 266 266 266 267 267 267 267 267 268 267 267 268 268 270 272 274 275 275 273 272 272 274 276 276 278 280 282 284 285 284 282 280 281 281 280 279 279 280 280 280 281 281 282 283 284 285
238 238 240 242 243 244 245 247 248 249 248 248 249 249 249 248 248 247 247 247 247 247 247 248 249 249 250 252 254 254 255 255 256 256 257 258 259 260 261 262 263 264 264 264 265 266 266 267 268 268 268 268 267 266 268 271 272 272 273 271 271 273 275 276 274 273 275 277 280 281 281 281 281 281 280 280 279 279 279 279 280 281 281 281 281 281 282 283
239 239 239 240 242 243 243 244 246 247 248 249 249 249 250 249 249 249 248 248 248 248 248 248 249 249 249 252 254 255 256 256 256 255 256 257 258 259 260 261 262 262 263 263 264 265 265 266 268 268 268 267 266 267 270 271 271 271 270 270 272 274 276 276 273 273 274 275 277 277 277 278 280 281 279 279 280 280 280 280 281 281 281 281 281 281 281 281
239 240 241 241 242 242 243 243 243 245 247 249 250 250 251 251 250 250 249 249 249 249 249 248 249 249 249 251 253 254 255 255 255 255 256 256 257 258 259 260 260 261 262 262 262 263 264 266 267 268 267 265 266 269 271 270 270 270 270 271 274 275 276 276 274 274 275 275 275 275 277 278 278 279 280 280 280 280 280 281 282 282 282 282 282 282 282 281
238 240 242 243 242 242 242 243 243 244 246 248 249 251 251 251 252 251 251 250 250 250 249 249 250 249 249 250 251 253 254 254 255 256 256 256 256 257 257 258 259 260 260 261 261 262 263 264 266 265 264 265 268 270 269 269 270 270 271 272 274 275 276 275 275 276 275 275 275 274 276 278 278 279 281 281 280 280 280 281 281 282 282 283 283 283 283 282
238 240 242 243 243 242 241 242 242 243 244 246 248 250 251 251 251 251 251 251 251 251 251 251 251 251 250 250 251 252 253 254 255 255 256 256 256 256 256 257 257 257 258 259 260 261 261 263 264 263 264 267 268 268 269 269 270 270 271 272 273 275 275 274 275 275 274 274 276 275 275 277 278 280 281 281 281 281 281 281 281 282 283 283 283 284 284 284
239 240 241 243 244 244 242 241 242 242 243 245 247 249 250 250 250 250 250 251 252 253 253 253 254 254 252 251 252 253 253 254 255 255 255 256 256 257 257 257 257 257 257 258 259 260 261 262 262 263 266 268 267 268 269 270 270 271 271 272 273 273 273 274 275 275 274 274 274 275 276 277 279 281 280 280 280 280 280 281 282 283 283 284 284 285 286 286
241 241 241 242 244 245 243 241 241 242 243 245 246 247 247 248 248 248 249 250 251 252 252 253 254 255 255 254 255 255 255 255 255 256 256 256 257 257 257 257 257 257 258 259 259 259 261 261 262 264 266 267 267 268 269 270 271 271 271 272 272 272 271 274 275 275 274 273 273 274 276 277 279 279 280 280 280 280 280 281 282 282 283 284 285 286 287 288
241 242 242 243 243 244 244 242 241 242 243 244 245 246 246 247 248 248 248 248 250 251 251 251 252 252 254 255 255 256 256 257 257 258 258 258 258 257 257 257 257 258 259 259 258 259 260 260 262 265 265 265 267 268 269 270 271 272 272 273 272 272 272 273 274 275 274 274 274 274 276 278 279 278 279 279 278 279 280 281 282 283 284 285 286 287 288 289
239 241 242 243 243 244 244 243 241 241 242 243 244 246 247 247 247 248 249 248 248 251 252 251 251 251 252 253 254 255 256 256 257 257 258 258 258 258 258 258 259 259 259 258 258 259 259 260 262 263 264 265 267 269 269 270 270 271 273 273 272 272 272 272 272 274 275 276 275 275 277 278 278 278 277 277 277 278 279 280 282 283 285 285 286 286 287 288
238 239 240 242 243 244 244 244 243 242 242 243 244 245 246 247 247 248 249 248 247 249 252 252 251 252 253 253 254 255 254 255 257 257 258 258 258 259 259 259 260 260 260 260 260 261 262 261 261 263 264 266 267 268 269 268 269 271 272 272 270 271 272 272 272 273 274 276 276 276 277 277 276 276 275 275 277 278 279 280 282 283 284 284 284 285 287 288
237 238 239 241 242 243 244 245 245 243 242 243 244 244 244 245 247 247 248 249 246 247 252 254 253 252 254 254 254 253 253 254 257 257 257 258 259 259 260 261 262 262 262 263 263 265 264 263 263 264 266 266 267 268 268 268 268 269 270 269 269 269 270 271 272 272 273 274 276 277 276 274 274 274 273 274 276 277 279 280 281 282 282 283 284 285 286 287
238 238 239 240 241 242 243 243 244 245 245 245 245 245 245 245 246 247 248 248 246 245 250 254 255 254 253 253 253 253 252 253 254 255 255 256 257 258 259 260 262 262 263 264 266 266 265 265 266 266 267 267 268 267 267 268 268 268 268 268 269 269 269 269 270 271 272 273 274 276 273 271 270 271 272 274 276 276 277 279 280 280 280 281 283 284 285 287
239 239 239 240 241 241 242 242 243 246 246 247 248 247 246 246 246 247 247 248 246 244 248 252 254 254 253 253 254 254 252 251 252 254 254 254 255 256 257 258 259 260 262 264 266 266 266 267 268 267 268 268 268 267 268 268 268 267 268 268 269 268 269 269 269 270 271 272 273 272 269 269 268 269 272 274 274 275 276 278 278 278 279 280 282 283 285 286
242 241 240 240 241 241 242 242 245 246 247 247 248 249 248 247 247 247 248 248 247 245 247 248 251 253 254 254 254 254 254 252 252 253 255 256 256 257 257 257 257 259 261 262 263 265 266 268 268 269 269 269 268 269 269 269 269 268 268 268 268 268 269 269 269 269 269 271 271 267 266 268 268 269 272 272 272 274 276 277 277 277 278 279 281 282 283 284
245 245 244 243 242 242 243 243 245 247 246 246 247 247 248 247 247 247 248 249 249 248 246 246 247 250 253 254 255 255 256 256 255 255 256 257 258 258 259 259 260 260 261 261 262 263 265 266 268 269 269 269 270 271 271 271 270 269 268 268 268 269 269 269 269 268 268 269 267 264 266 270 271 270 269 270 272 273 275 275 276 276 277 278 280 281 281 282
246 247 247 245 244 244 243 244 246 247 247 246 246 246 246 247 246 247 247 248 248 246 245 246 247 248 251 253 255 255 255 256 256 256 257 258 260 261 263 263 264 263 263 264 264 263 263 265 266 267 268 269 270 270 270 270 270 269 269 269 269 269 269 268 268 267 267 266 264 265 268 271 272 269 267 269 270 271 273 274 275 275 276 277 278 278 279 279
246 247 248 247 245 244 244 245 246 247 247 247 247 247 247 247 247 248 249 248 248 246 246 248 248 249 250 251 252 254 255 255 256 257 259 260 262 264 265 266 266 266 265 264 264 264 264 265 266 266 267 268 268 268 268 269 269 269 270 270 269 269 268 267 267 266 266 265 264 266 268 271 272 269 266 267 267 269 271 273 273 274 275 276 276 276 277 278
245 247 248 248 246 245 245 245 246 246 247 248 248 248 249 248 249 250 250 248 248 247 246 247 246 246 247 249 250 252 254 256 257 258 259 260 262 263 265 266 266 266 265 264 264 265 265 265 266 266 265 265 266 267 268 269 270 270 270 269 269 268 267 266 265 265 266 265 265 266 269 271 270 268 267 267 268 270 271 271 272 272 273 274 274 275 275 276
245 247 247 248 247 246 245 245 246 247 248 248 249 249 249 249 250 251 251 250 250 249 247 247 247 246 246 247 249 251 253 255 257 258 259 260 261 263 264 264 265 265 265 264 264 264 264 264 265 265 265 266 267 268 269 269 270 270 270 269 269 268 266 265 265 265 265 265 265 267 269 269 267 266 267 268 269 270 270 271 271 272 272 273 273 274 274 274
244 246 246 247 247 247 247 246 246 247 248 249 250 250 249 250 251 252 252 252 250 248 247 246 246 246 245 246 248 250 252 254 256 257 259 260 261 262 263 264 265 265 265 264 263 262 263 263 264 265 266 267 267 268 268 269 269 269 269 269 269 267 266 265 266 266 265 265 266 267 267 267 265 265 267 268 268 269 269 270 271 272 272 272 272 272 273 274
242 245 245 245 245 246 247 248 248 247 247 248 248 249 250 251 251 251 251 251 249 248 247 246 246 246 246 247 248 251 253 254 255 257 258 260 261 261 263 264 264 264 265 264 263 262 262 263 264 265 266 267 267 267 268 268 269 269 269 268 267 266 266 267 267 267 266 266 266 266 266 266 266 266 266 267 267 268 269 270 271 271 271 270 271 271 272 273
242 244 244 244 245 245 246 247 248 249 248 248 248 248 249 250 249 248 249 249 249 249 248 247 247 247 248 247 247 249 251 253 254 256 258 259 260 261 262 262 263 264 264 263 263 264 264 264 264 265 266 267 267 267 268 269 269 269 268 267 266 266 268 268 268 268 268 267 266 265 266 266 267 267 267 267 267 268 268 269 269 269 269 269 269 270 272 274
241 243 243 243 244 245 246 247 248 249 249 249 249 247 247 248 248 248 248 249 249 249 249 249 249 249 249 248 247 248 249 250 252 255 257 258 259 260 261 261 262 262 262 262 263 264 264 263 264 265 266 267 267 268 268 269 268 268 267 267 267 268 269 270 270 270 270 269 268 266 266 267 268 268 268 268 268 268 268 269 269 268 268 268 269 271 273 274
240 242 243 243 244 244 245 246 247 248 249 249 249 247 246 247 248 249 248 249 250 250 251 251 251 251 250 249 248 248 248 249 250 252 254 256 258 259 259 260 261 261 261 261 261 262 262 263 263 264 265 265 266 267 267 266 266 266 267 268 269 269 269 270 271 272 272 272 270 269 268 268 269 269 269 269 269 269 269 269 269 268 268 268 269 271 273 274
239 241 242 243 244 245 245 246 246 247 248 248 248 247 247 247 248 248 248 248 249 250 251 252 252 252 251 251 251 250 250 250 250 251 253 255 256 257 258 259 259 259 260 260 261 262 262 263 263 263 263 264 265 265 265 264 265 266 267 267 267 268 268 269 270 271 272 272 272 271 270 269 269 269 270 270 270 269 269 269 269 269 269 269 270 271 274 274
239 240 241 242 243 245 246 246 246 246 247 248 249 248 247 247 247 248 249 249 248 249 251 252 253 254 254 253 253 253 254 253 252 253 253 254 255 256 256 257 258 258 259 260 261 261 261 261 262 263 263 264 264 264 265 265 266 266 266 266 267 267 267 267 268 270 272 273 273 271 269 268 268 268 269 269 269 269 268 269 269 269 269 269 269 271 274 275
239 240 240 240 241 243 245 246 246 246 246 247 249 249 248 248 247 248 248 249 249 249 250 251 253 255 255 256 256 255 255 255 254 254 254 254 254 254 254 255 257 258 259 260 261 261 261 261 262 262 263 263 263 264 265 266 266 267 268 268 267 266 267 268 269 271 272 273 272 270 268 267 268 268 268 268 268 268 268 268 268 268 268 269 270 272 274 276
239 240 239 239 240 241 243 245 245 246 246 247 248 248 248 248 248 248 248 249 250 250 250 251 253 255 256 256 257 257 257 256 255 254 254 253 253 254 255 255 257 258 259 260 260 260 260 261 261 261 262 262 263 264 265 267 268 268 267 266 266 267 269 270 271 271 271 272 272 271 270 269 268 268 268 268 268 267 267 267 267 268 268 269 270 272 274 276
237 239 239 239 240 241 242 244 245 246 246 247 247 249 249 248 248 249 250 250 250 251 251 252 253 255 256 256 256 257 257 257 256 255 254 254 254 255 256 256 257 258 259 259 260 260 260 260 260 261 262 262 264 265 266 267 266 265 265 266 268 269 270 270 271 270 270 271 272 272 271 270 270 269 269 269 268 268 268 268 269 269 269 270 271 272 274 276
236 237 238 238 239 240 242 243 245 246 247 247 247 249 250 249 249 249 251 252 251 251 251 252 253 254 255 256 256 256 257 257 257 256 255 255 256 256 257 258 258 258 259 259 259 260 260 261 261 262 263 263 263 264 264 265 265 266 267 268 268 269 269 270 270 270 271 271 271 272 272 271 270 269 269 269 269 270 270 270 270 270 271 271 273 274 276 277
234 235 237 238 239 239 241 242 243 245 246 247 248 249 251 252 251 250 250 251 252 252 252 251 252 253 254 255 256 257 257 258 257 257 256 256 256 257 258 259 259 259 259 259 260 260 261 261 262 263 263 263 262 263 263 264 266 268 268 268 269 270 270 270 270 271 272 272 272 273 273 271 270 270 270 270 270 270 271 271 271 271 272 273 275 276 277 278
233 234 235 237 239 239 240 242 243 244 246 247 249 250 251 252 253 252 251 250 251 252 253 253 252 253 254 255 256 257 257 257 257 256 255 255 255 256 257 258 259 260 260 260 260 261 261 261 262 263 263 263 263 263 264 265 266 267 267 267 268 269 270 271 273 273 274 273 273 273 272 271 271 271 271 271 270 270 271 271 272 273 273 275 276 276 277 276
232 233 234 236 237 239 240 241 242 243 244 246 247 249 249 250 252 253 253 253 252 252 252 253 253 253 254 255 255 256 256 257 257 256 256 255 255 255 256 257 259 260 261 262 262 262 262 262 262 262 263 263 264 264 264 265 266 266 266 265 266 267 269 271 273 273 273 273 272 272 271 272 272 272 272 271 271 270 271 272 273 274 274 275 275 276 275 275
231 232 233 235 236 237 239 240 241 242 243 244 246 247 248 248 249 251 252 253 253 253 252 252 253 253 254 254 255 255 256 257 258 258 258 258 258 258 258 259 259 260 261 262 262 263 263 264 263 263 262 262 263 264 264 264 264 264 264 264 265 266 269 270 270 270 270 270 271 272 272 272 272 272 272 272 272 272 273 273 274 274 275 275 275 275 275 275
231 231 233 234 235 237 238 238 240 241 242 243 244 246 247 247 247 248 249 251 252 253 253 253 252 252 253 253 253 254 255 256 257 258 259 260 261 261 262 262 262 263 263 263 263 264 264 265 265 265 264 262 262 263 263 262 262 262 262 264 266 268 268 268 267 267 269 270 271 271 271 271 271 270 270 271 272 273 273 274 274 275 276 277 277 277 277 278
232 232 232 233 235 236 237 238 239 240 241 242 243 244 245 246 246 247 247 248 249 250 251 252 252 252 251 252 252 254 255 256 257 258 258 260 261 262 263 264 265 266 266 266 267 267 267 267 267 267 267 266 264 263 263 262 260 260 261 264 266 266 266 265 265 267 269 270 270 270 270 270 268 268 269 270 271 272 273 275 276 278 280 281 281 282 283 284
232 232 232 233 234 235 236 237 238 239 240 241 242 243 244 245 246 246 246 247 248 249 250 250 251 251 251 251 252 254 255 255 256 257 259 260 261 262 264 265 265 266 267 268 268 269 269 269 269 269 269 269 268 267 266 264 260 259 260 263 264 264 264 265 267 268 270 270 270 271 271 271 270 269 270 271 272 273 275 278 280 282 284 285 286 287 288 288
Height
10776 10778 10780 10782 10783 10785 10787 10788 10790 10791 10792 10794 10795 10796 10797 10799 10800 10801 10802 10803 10804 10805 10806 10807 10808 10809 10809 10810 10811 10812 10812 10813 10813 10813 10814 10814 10814 10815 10815 10815 10815 10815 10815 10815 10815 10815 10815 10815 10815 10815 10815 10815 10815 10816 10816 10816 10815 10815 10815 10814 10814 10814 10814 10813 10813 10813 10813 10813 10813 10814 10813 10812 10812 10812 10811 10809 10808 10809 10809 10807 10806 10806 10806 10806 10807 10808 10808 10808
10772 10774 10775 10777 10779 10781 10782 10784 10785 10787 10788 10790 10791 10792 10794 10795 10796 10797 10799 10800 10801 10802 10803 10804 10805 10806 10806 10807 10808 10809 10810 10810 10810 10811 10811 10811 10812 10812 10812 10812 10812 10812 10812 10812 10812 10812 10813 10813 10813 10813 10813 10813 10813 10813 10814 10813 10813 10813 10813 10812 10812 10812 10811 10811 10811 10811 10811 10811 10812 10812 10812 10811 10810 10810 10809 10808 10806 10807 10807 10805 10804 10805 10805 10804 10804 10805 10805 10806
10768 10769 10771 10773 10774 10776 10778 10779 10781 10783 10784 10785 10787 10788 10789 10791 10792 10793 10795 10796 10797 10798 10800 10800 10801 10802 10803 10804 10805 10806 10807 10807 10807 10808 10808 10808 10809 10809 10809 10809 10809 10810 10810 10810 10810 10810 10810 10810 10810 10810 10810 10810 10811 10811 10811 10811 10811 10811 10811 10810 10810 10810 10809 10809 10809 10809 10808 10809 10809 10810 10810 10809 10809 10808 10807 10806 10804 10805 10805 10803 10803 10802 10803 10803 10802 10802 10803 10803
10763 10765 10766 10768 10769 10771 10773 10775 10777 10778 10780 10781 10782 10784 10785 10787 10788 10790 10791 10792 10793 10795 10796 10797 10798 10799 10800 10800 10801 10802 10804 10804 10804 10805 10805 10806 10806 10806 10806 10806 10806 10807 10807 10807 10807 10807 10807 10807 10807 10808 10808 10808 10808 10809 10809 10809 10809 10808 10808 10808 10808 10808 10807 10807 10807 10806 10806 10806 10807 10807 10808 10807 10807 10807 10805 10804 10803 10803 10802 10802 10801 10800 10800 10801 10800 10800 10800 10800
10758 10760 10762 10763 10765 10766 10768 10770 10772 10774 10775 10777 10778 10780 10781 10782 10784 10785 10787 10788 10789 10791 10792 10793 10794 10795 10796 10797 10797 10799 10800 10801 10801 10801 10802 10802 10802 10802 10803 10803 10803 10803 10804 10804 10804 10804 10804 10804 10804 10805 10805 10805 10806 10806 10806 10806 10806 10806 10806 10806 10806 10805 10805 10805 10804 10804 10804 10804 10804 10805 10805 10804 10804 10804 10803 10802 10802 10801 10801 10800 10799 10798 10798 10798 10798 10798 10798 10798
10754 10755 10757 10758 10760 10761 10763 10765 10767 10769 10770 10772 10774 10775 10777 10778 10780 10781 10782 10784 10785 10787 10788 10789 10790 10791 10792 10793 10794 10795 10796 10797 10797 10797 10798 10799 10799 10799 10799 10799 10800 10800 10800 10801 10801 10801 10801 10801 10801 10802 10802 10802 10803 10803 10803 10803 10803 10803 10803 10803 10803 10803 10802 10802 10802 10801 10801 10801 10801 10802 10802 10802 10802 10802 10800 10799 10799 10799 10799 10798 10797 10796 10796 10796 10796 10796 10795 10795
10749 10750 10752 10754 10755 10757 10758 10760 10762 10764 10765 10767 10769 10771 10773 10774 10775 10776 10778 10779 10781 10783 10784 10785 10786 10787 10788 10789 10790 10790 10792 10794 10792 10793 10795 10795 10795 10796 10796 10796 10796 10797 10797 10798 10798 10798 10798 10798 10799 10799 10799 10799 10799 10800 10800 10800 10800 10800 10800 10800 10800 10800 10800 10799 10799 10798 10798 10798 10798 10799 10800 10799 10799 10799 10797 10796 10795 10796 10796 10796 10795 10795 10794 10794 10794 10793 10793 10792
10744 10746 10748 10750 10751 10752 10754 10756 10757 10759 10761 10762 10764 10766 10768 10769 10771 10772 10773 10775 10777 10779 10780 10781 10782 10783 10784 10785 10786 10786 10788 10790 10788 10789 10791 10791 10791 10792 10792 10793 10793 10794 10794 10794 10795 10795 10795 10796 10796 10796 10796 10796 10796 10796 10797 10797 10797 10797 10797 10797 10798 10798 10797 10797 10796 10795 10795 10794 10795 10796 10797 10796 10797 10796 10795 10793 10792 10792 10793 10793 10793 10792 10792 10792 10792 10791 10790 10790
10740 10742 10743 10745 10747 10748 10750 10751 10753 10754 10756 10758 10760 10761 10763 10765 10766 10767 10769 10771 10773 10774 10776 10777 10778 10779 10780 10781 10781 10781 10784 10786 10784 10784 10786 10787 10788 10788 10789 10789 10790 10790 10791 10791 10792 10792 10792 10793 10793 10793 10793 10793 10793 10793 10793 10793 10794 10794 10794 10794 10795 10795 10795 10794 10793 10792 10791 10791 10792 10793 10794 10793 10794 10793 10792 10791 10790 10790 10789 10789 10789 10789 10789 10789 10789 10788 10787 10787
10735 10737 10738 10740 10742 10744 10745 10746 10748 10750 10751 10753 10755 10756 10758 10760 10761 10762 10764 10766 10768 10769 10771 10772 10774 10775 10775 10776 10777 10776 10780 10782 10780 10780 10781 10783 10784 10785 10785 10785 10786 10787 10788 10788 10789 10789 10790 10790 10790 10790 10790 10789 10789 10790 10790 10790 10790 10790 10790 10791 10792 10792 10793 10792 10790 10789 10788 10788 10789 10790 10790 10790 10790 10790 10789 10788 10787 10787 10787 10786 10786 10785 10785 10785 10785 10784 10784 10783
10729 10731 10733 10735 10737 10739 10740 10742 10743 10745 10746 10748 10750 10751 10753 10755 10756 10757 10759 10761 10763 10764 10766 10768 10769 10770 10771 10772 10771 10771 10775 10777 10776 10777 10778 10779 10780 10781 10781 10782 10783 10784 10784 10785 10786 10786 10786 10787 10786 10786 10786 10785 10786 10786 10786 10786 10786 10787 10787 10788 10789 10789 10790 10789 10787 10786 10785 10785 10785 10786 10787 10787 10787 10787 10786 10785 10785 10784 10784 10783 10783 10783 10783 10782 10781 10781 10780 10780
10724 10726 10728 10729 10731 10733 10735 10737 10738 10740 10741 10743 10745 10746 10748 10749 10751 10752 10754 10756 10757 10759 10761 10762 10764 10765 10767 10767 10766 10766 10770 10772 10772 10773 10774 10775 10776 10777 10777 10778 10779 10780 10781 10782 10782 10783 10783 10783 10783 10783 10782 10782 10782 10782 10782 10783 10783 10783 10784 10784 10785 10786 10786 10785 10784 10784 10783 10783 10782 10783 10783 10783 10784 10783 10783 10783 10782 10781 10781 10780 10780 10780 10780 10780 10779 10778 10777 10777
10719 10721 10723 10724 10726 10728 10729 10731 10733 10735 10736 10738 10740 10741 10743 10744 10745 10747 10749 10750 10752 10753 10755 10757 10759 10760 10762 10762 10761 10762 10765 10767 10768 10769 10770 10772 10772 10773 10773 10774 10775 10776 10777 10778 10778 10779 10779 10779 10779 10779 10779 10778 10778 10779 10779 10779 10779 10780 10780 10781 10781 10781 10781 10780 10781 10781 10781 10781 10780 10779 10779 10779 10780 10780 10779 10779 10779 10778 10778 10778 10778 10777 10777 10777 10776 10775 10775 10774
10714 10716 10718 10719 10721 10722 10724 10725 10727 10729 10731 10733 10734 10736 10738 10739 10741 10742 10744 10745 10747 10748 10750 10752 10754 10756 10758 10758 10756 10758 10760 10762 10764 10765 10766 10768 10768 10768 10769 10770 10771 10772 10773 10774 10774 10774 10775 10775 10775 10775 10775 10775 10774 10775 10775 10775 10776 10776 10777 10777 10776 10775 10775 10776 10778 10778 10778 10778 10777 10776 10775 10775 10776 10776 10776 10776 10775 10775 10775 10775 10775 10775 10775 10774 10774 10773 10772 10771
10707 10710 10711 10713 10715 10716 10718 10720 10722 10724 10726 10727 10729 10731 10733 10734 10736 10737 10739 10740 10741 10743 10745 10747 10749 10751 10754 10753 10751 10753 10755 10757 10760 10761 10763 10763 10763 10764 10765 10766 10767 10768 10769 10769 10769 10770 10770 10771 10771 10771 10770 10770 10770 10770 10771 10772 10772 10772 10773 10772 10770 10769 10770 10773 10775 10775 10775 10775 10774 10773 10771 10770 10771 10772 10772 10771 10771 10771 10771 10771 10771 10771 10772 10772 10771 10770 10769 10769
10700 10703 10705 10707 10708 10710 10712 10714 10716 10718 10720 10722 10724 10726 10727 10729 10730 10732 10733 10734 10736 10738 10739 10742 10744 10746 10749 10748 10747 10748 10750 10753 10755 10757 10758 10758 10759 10760 10760 10762 10763 10763 10764 10764 10765 10765 10766 10766 10767 10767 10766 10765 10765 10766 10768 10769 10769 10769 10769 10767 10765 10765 10766 10769 10771 10771 10772 10772 10770 10769 10767 10765 10766 10768 10768 10767 10767 10767 10767 10767 10767 10768 10768 10768 10768 10767 10767 10766
10693 10696 10698 10700 10702 10704 10706 10708 10710 10712 10714 10716 10718 10720 10721 10723 10725 10726 10728 10729 10731 10732 10734 10737 10737 10740 10744 10744 10742 10743 10745 10748 10750 10751 10752 10753 10754 10755 10756 10757 10758 10759 10759 10759 10760 10760 10761 10762 10762 10762 10761 10760 10760 10762 10765 10765 10764 10765 10764 10762 10761 10761 10761 10763 10765 10767 10768 10768 10767 10765 10763 10762 10762 10763 10763 10763 10763 10763 10763 10763 10763 10763 10763 10763 10763 10763 10762 10762
10686 10689 10692 10694 10696 10697 10700 10702 10704 10707 10709 10711 10712 10714 10715 10717 10718 10721 10722 10723 10725 10726 10729 10731 10731 10736 10740 10739 10737 10738 10739 10742 10744 10745 10747 10748 10749 10750 10751 10752 10753 10753 10754 10755 10755 10756 10757 10758 10758 10757 10754 10754 10757 10760 10761 10760 10760 10761 10760 10759 10758 10757 10757 10757 10760 10763 10763 10763 10763 10761 10759 10758 10758 10759 10759 10759 10759 10759 10759 10759 10759 10759 10759 10758 10758 10758 10757 10757
10679 10682 10685 10687 10690 10691 10693 10695 10699 10702 10703 10704 10706 10708 10709 10711 10712 10714 10716 10717 10720 10721 10723 10726 10727 10732 10735 10733 10732 10733 10733 10736 10738 10739 10742 10743 10744 10745 10746 10747 10747 10748 10749 10749 10750 10751 10752 10753 10754 10751 10748 10750 10754 10755 10756 10756 10756 10756 10756 10756 10755 10754 10752 10751 10755 10759 10759 10759 10758 10756 10756 10753 10753 10755 10754 10754 10754 10755 10755 10754 10754 10754 10754 10754 10753 10753 10752 10752
10672 10675 10677 10680 10683 10685 10687 10689 10693 10696 10697 10698 10700 10702 10703 10704 10705 10707 10709 10712 10713 10714 10718 10722 10723 10727 10729 10728 10727 10728 10728 10731 10733 10734 10736 10737 10737 10739 10740 10741 10742 10742 10743 10743 10745 10746 10747 10749 10748 10743 10743 10748 10750 10750 10750 10751 10751 10752 10752 10752 10752 10750 10747 10746 10751 10754 10754 10755 10753 10751 10752 10750 10748 10750 10750 10749 10749 10749 10750 10750 10750 10749 10749 10749 10748 10748 10747 10746
10663 10666 10670 10673 10676 10679 10681 10683 10687 10690 10691 10693 10695 10695 10696 10696 10697 10700 10703 10705 10707 10709 10713 10717 10719 10722 10723 10723 10722 10723 10724 10726 10727 10728 10729 10730 10731 10734 10735 10735 10736 10736 10737 10739 10741 10740 10742 10745 10741 10737 10741 10744 10744 10745 10746 10746 10747 10747 10747 10748 10748 10746 10743 10743 10747 10749 10749 10751 10749 10747 10747 10746 10745 10745 10745 10744 10744 10744 10744 10745 10745 10744 10744 10743 10743 10742 10741 10740
10655 10659 10663 10666 10670 10672 10674 10677 10681 10684 10686 10687 10689 10688 10687 10688 10690 10694 10696 10699 10703 10704 10708 10711 10715 10717 10716 10718 10718 10718 10720 10721 10721 10722 10723 10724 10726 10727 10728 10728 10729 10731 10732 10734 10734 10734 10738 10739 10734 10733 10738 10738 10738 10740 10741 10741 10742 10742 10743 10744 10743 10741 10740 10741 10742 10743 10744 10745 10745 10743 10743 10742 10741 10740 10739 10739 10739 10738 10739 10739 10739 10739 10738 10738 10737 10736 10735 10735
10648 10652 10655 10659 10663 10664 10667 10670 10674 10679 10680 10680 10680 10679 10678 10681 10684 10687 10689 10694 10697 10698 10702 10706 10708 10710 10710 10712 10712 10712 10715 10716 10716 10717 10717 10718 10719 10720 10722 10722 10723 10726 10728 10727 10726 10729 10733 10732 10729 10730 10732 10731 10733 10735 10735 10736 10737 10737 10738 10739 10738 10735 10736 10738 10737 10737 10739 10740 10739 10738 10738 10737 10736 10735 10734 10733 10733 10733 10733 10734 10733 10733 10733 10732 10731 10730 10729 10729
10640 10644 10647 10652 10654 10657 10660 10662 10668 10674 10672 10671 10672 10669 10670 10675 10677 10680 10682 10687 10693 10694 10696 10699 10702 10704 10704 10705 10706 10708 10710 10709 10709 10710 10710 10711 10711 10713 10715 10715 10717 10721 10720 10718 10720 10724 10727 10727 10725 10724 10724 10726 10728 10729 10730 10730 10732 10733 10733 10733 10732 10731 10731 10733 10733 10733 10734 10734 10733 10733 10735 10733 10729 10730 10729 10727 10728 10728 10728 10728 10727 10727 10727 10726 10725 10724 10723 10723
10632 10635 10640 10644 10646 10650 10652 10656 10664 10665 10662 10663 10662 10658 10662 10668 10669 10672 10674 10679 10689 10692 10689 10693 10697 10699 10698 10699 10702 10702 10701 10703 10704 10703 10703 10704 10704 10706 10708 10709 10712 10714 10712 10711 10715 10720 10721 10720 10718 10718 10719 10721 10723 10724 10723 10723 10726 10729 10728 10726 10726 10726 10726 10727 10728 10729 10729 10729 10727 10727 10730 10728 10724 10723 10723 10722 10722 10722 10722 10722 10722 10721 10721 10720 10719 10718 10717 10717
10624 10628 10633 10636 10639 10642 10645 10654 10657 10653 10655 10656 10650 10649 10656 10660 10660 10664 10665 10669 10684 10691 10685 10686 10690 10693 10693 10693 10694 10692 10694 10700 10697 10694 10696 10696 10697 10699 10701 10704 10706 10707 10706 10705 10710 10716 10715 10712 10711 10713 10714 10715 10717 10718 10715 10716 10722 10725 10722 10719 10720 10721 10720 10721 10722 10723 10725 10725 10722 10722 10724 10724 10720 10717 10716 10717 10717 10717 10716 10716 10716 10715 10715 10714 10713 10712 10711 10711
10617 10621 10624 10628 10632 10634 10640 10648 10645 10644 10650 10646 10639 10643 10648 10650 10651 10656 10655 10658 10679 10690 10683 10680 10683 10687 10687 10685 10685 10684 10690 10695 10688 10685 10689 10688 10689 10692 10695 10699 10699 10699 10699 10699 10706 10711 10707 10704 10706 10707 10708 10709 10711 10710 10708 10710 10715 10718 10715 10713 10714 10714 10714 10716 10716 10717 10719 10720 10719 10716 10715 10717 10717 10712 10710 10711 10712 10711 10710 10710 10710 10710 10709 10708 10707 10706 10705 10705
10609 10612 10615 10620 10623 10626 10632 10637 10638 10641 10643 10636 10633 10636 10639 10641 10643 10647 10645 10650 10676 10687 10680 10677 10676 10677 10679 10679 10678 10678 10683 10686 10679 10680 10682 10680 10683 10686 10689 10692 10690 10690 10692 10694 10700 10703 10700 10699 10700 10700 10702 10704 10703 10702 10702 10704 10708 10710 10708 10707 10707 10707 10708 10710 10710 10712 10713 10714 10715 10710 10706 10710 10713 10709 10705 10706 10705 10704 10704 10704 10704 10703 10702 10701 10701 10700 10699 10699
10599 10602 10607 10610 10613 10618 10624 10630 10635 10636 10632 10627 10625 10626 10628 10630 10633 10637 10634 10646 10673 10682 10675 10672 10670 10670 10671 10671 10671 10671 10674 10676 10674 10675 10673 10673 10678 10680 10681 10683 10683 10685 10686 10688 10692 10694 10694 10693 10692 10693 10696 10696 10695 10696 10697 10697 10700 10702 10702 10701 10700 10700 10702 10703 10705 10706 10706 10709 10710 10702 10698 10703 10709 10707 10702 10700 10699 10698 10698 10697 10697 10696 10695 10695 10694 10694 10693 10692
10590 10594 10597 10599 10604 10610 10615 10622 10626 10625 10620 10616 10615 10616 10616 10618 10624 10624 10626 10647 10670 10672 10668 10667 10665 10664 10663 10662 10664 10664 10666 10667 10668 10669 10668 10669 10671 10672 10675 10676 10677 10680 10680 10682 10685 10686 10687 10686 10686 10688 10688 10688 10688 10690 10690 10690 10692 10694 10694 10694 10693 10694 10696 10697 10698 10698 10699 10704 10701 10693 10693 10697 10703 10705 10698 10694 10694 10692 10691 10691 10690 10690 10689 10688 10688 10687 10686 10685
10581 10584 10587 10591 10597 10601 10605 10612 10614 10610 10606 10605 10606 10604 10604 10609 10612 10610 10624 10650 10659 10657 10660 10661 10660 10660 10656 10655 10656 10656 10658 10659 10660 10661 10662 10663 10663 10666 10669 10669 10671 10673 10674 10677 10678 10677 10678 10680 10680 10680 10681 10682 10682 10682 10682 10683 10684 10685 10687 10687 10686 10688 10690 10690 10691 10691 10693 10697 10693 10688 10689 10692 10697 10699 10693 10690 10688 10686 10685 10684 10683 10683 10682 10681 10681 10680 10679 10677
10572 10574 10577 10581 10587 10591 10596 10602 10601 10596 10594 10596 10596 10595 10598 10598 10596 10606 10631 10646 10643 10646 10655 10654 10655 10654 10648 10647 10647 10646 10648 10649 10651 10654 10655 10656 10658 10661 10663 10663 10665 10665 10668 10671 10668 10668 10672 10673 10673 10674 10675 10675 10673 10673 10674 10675 10676 10678 10680 10680 10679 10681 10683 10683 10684 10683 10685 10688 10687 10685 10685 10687 10691 10690 10686 10685 10683 10680 10680 10678 10677 10676 10674 10673 10673 10672 10671 10670
10563 10566 10568 10571 10577 10582 10586 10589 10587 10584 10586 10588 10586 10588 10590 10583 10589 10612 10631 10632 10631 10639 10646 10644 10644 10643 10640 10641 10641 10639 10639 10640 10643 10646 10647 10649 10652 10655 10656 10657 10658 10658 10661 10663 10660 10662 10665 10666 10666 10666 10666 10666 10665 10666 10667 10668 10669 10671 10673 10672 10672 10674 10675 10675 10676 10675 10678 10680 10681 10681 10681 10683 10684 10680 10678 10679 10677 10676 10675 10672 10671 10669 10667 10666 10665 10664 10663 10662
10554 10556 10559 10562 10568 10572 10575 10577 10576 10577 10579 10577 10577 10579 10575 10573 10593 10615 10620 10621 10626 10630 10634 10634 10633 10632 10633 10634 10634 10633 10632 10633 10636 10637 10639 10642 10645 10649 10650 10650 10651 10650 10652 10654 10654 10655 10656 10658 10659 10657 10658 10659 10658 10659 10660 10661 10663 10664 10664 10664 10666 10666 10665 10667 10668 10669 10672 10673 10674 10675 10676 10678 10677 10672 10670 10671 10671 10669 10667 10666 10665 10663 10661 10659 10658 10657 10656 10655
10545 10547 10549 10552 10557 10562 10566 10567 10568 10569 10568 10566 10567 10564 10561 10576 10601 10609 10608 10613 10616 10617 10622 10623 10620 10620 10623 10626 10628 10628 10627 10629 10630 10629 10631 10635 10638 10641 10642 10643 10643 10643 10643 10644 10646 10646 10647 10651 10651 10649 10650 10651 10651 10652 10652 10653 10655 10656 10657 10658 10659 10655 10654 10659 10662 10663 10665 10666 10668 10670 10669 10670 10669 10667 10665 10663 10662 10660 10658 10658 10658 10657 10655 10652 10650 10649 10648 10647
10536 10537 10538 10541 10549 10555 10557 10557 10559 10559 10555 10553 10552 10550 10561 10583 10596 10595 10597 10601 10601 10604 10609 10608 10608 10612 10615 10620 10623 10623 10623 10624 10624 10623 10625 10627 10631 10634 10636 10635 10634 10634 10635 10633 10635 10638 10640 10643 10644 10642 10643 10643 10643 10645 10645 10646 10648 10649 10650 10651 10648 10645 10647 10652 10654 10656 10657 10659 10664 10663 10662 10662 10660 10661 10660 10656 10654 10652 10651 10651 10650 10648 10646 10643 10642 10641 10639 10638
10526 10527 10527 10534 10541 10545 10546 10548 10547 10545 10543 10540 10537 10546 10565 10578 10580 10582 10586 10588 10590 10594 10595 10596 10601 10606 10610 10614 10616 10616 10616 10616 10618 10619 10619 10620 10623 10628 10628 10626 10625 10627 10626 10623 10626 10631 10633 10635 10636 10634 10635 10635 10636 10637 10637 10639 10640 10641 10643 10641 10638 10639 10642 10644 10645 10648 10648 10651 10657 10657 10655 10655 10653 10653 10652 10647 10646 10644 10643 10643 10641 10638 10636 10634 10633 10632 10630 10628
10516 10516 10517 10526 10531 10533 10536 10537 10534 10533 10532 10526 10526 10544 10562 10565 10566 10572 10575 10577 10581 10582 10583 10588 10594 10598 10601 10604 10607 10608 10606 10609 10613 10613 10612 10613 10617 10621 10619 10616 10617 10619 10616 10614 10618 10623 10623 10625 10627 10627 10627 10628 10628 10629 10631 10632 10632 10632 10632 10631 10631 10634 10636 10635 10636 10639 10640 10642 10647 10649 10649 10649 10647 10645 10642 10639 10637 10636 10634 10633 10631 10629 10627 10625 10624 10623 10621 10619
10505 10503 10507 10516 10520 10522 10526 10525 10523 10521 10517 10512 10519 10539 10553 10554 10558 10561 10562 10568 10572 10571 10575 10581 10583 10585 10590 10594 10597 10597 10597 10602 10605 10604 10605 10607 10610 10614 10611 10608 10609 10608 10605 10605 10609 10613 10615 10616 10619 10620 10619 10619 10620 10623 10624 10623 10622 10622 10625 10625 10626 10627 10627 10627 10627 10629 10631 10633 10637 10640 10642 10643 10641 10636 10633 10631 10628 10626 10625 10623 10620 10618 10617 10616 10615 10614 10612 10610
10492 10492 10499 10508 10509 10511 10514 10512 10509 10506 10502 10503 10515 10533 10542 10543 10547 10549 10551 10558 10561 10563 10569 10572 10570 10572 10579 10583 10585 10586 10588 10593 10596 10596 10598 10601 10603 10607 10604 10600 10600 10598 10595 10596 10600 10605 10606 10607 10609 10610 10610 10612 10614 10615 10614 10613 10614 10616 10618 10619 10618 10618 10618 10619 10620 10621 10621 10623 10627 10631 10635 10637 10633 10627 10624 10621 10618 10617 10613 10610 10609 10609 10608 10608 10606 10604 10602 10600
10481 10481 10492 10500 10498 10499 10500 10494 10493 10494 10494 10498 10510 10523 10529 10531 10536 10540 10543 10547 10551 10555 10559 10561 10561 10563 10568 10572 10575 10577 10578 10582 10587 10588 10591 10595 10597 10598 10596 10591 10589 10588 10586 10588 10593 10596 10595 10596 10598 10600 10603 10605 10605 10604 10604 10606 10608 10608 10610 10612 10611 10609 10609 10609 10611 10612 10611 10614 10618 10620 10625 10628 10625 10619 10616 10612 10608 10607 10603 10601 10600 10599 10599 10598 10596 10594 10593 10592
10468 10471 10482 10488 10486 10487 10484 10479 10482 10485 10487 10495 10504 10510 10514 10519 10526 10530 10533 10536 10541 10545 10549 10551 10553 10555 10558 10562 10564 10565 10567 10571 10576 10578 10582 10587 10587 10587 10585 10582 10581 10581 10579 10582 10585 10585 10584 10587 10589 10592 10594 10595 10595 10596 10596 10598 10600 10601 10603 10603 10600 10599 10599 10598 10602 10604 10604 10606 10607 10607 10613 10619 10615 10609 10606 10603 10600 10598 10596 10593 10590 10589 10590 10589 10587 10585 10584 10583
10456 10461 10470 10474 10475 10476 10471 10467 10471 10475 10482 10491 10493 10492 10498 10508 10516 10519 10524 10529 10532 10535 10540 10543 10546 10546 10548 10551 10552 10554 10556 10559 10563 10568 10571 10574 10575 10576 10575 10575 10574 10573 10573 10575 10576 10574 10573 10576 10580 10582 10584 10585 10587 10589 10589 10590 10592 10592 10592 10591 10588 10590 10591 10589 10593 10595 10595 10598 10597 10595 10601 10606 10603 10598 10595 10593 10592 10588 10586 10584 10583 10583 10582 10581 10579 10578 10575 10573
10446 10451 10456 10460 10463 10463 10458 10457 10462 10468 10476 10481 10479 10481 10488 10497 10506 10512 10517 10520 10522 10525 10530 10533 10536 10537 10538 10540 10541 10543 10545 10546 10551 10557 10559 10562 10565 10565 10564 10565 10566 10565 10565 10566 10565 10562 10561 10565 10570 10573 10575 10578 10579 10581 10582 10582 10579 10578 10580 10582 10583 10584 10582 10581 10582 10581 10584 10591 10588 10584 10590 10593 10590 10587 10583 10581 10580 10576 10574 10575 10575 10574 10572 10571 10571 10569 10566 10564
10436 10438 10442 10447 10449 10448 10447 10450 10456 10461 10465 10468 10469 10475 10478 10483 10497 10506 10507 10507 10510 10514 10518 10522 10525 10526 10526 10527 10529 10533 10534 10535 10540 10544 10547 10551 10553 10553 10552 10553 10554 10555 10556 10555 10554 10551 10550 10556 10562 10565 10569 10571 10571 10572 10572 10568 10565 10568 10575 10576 10574 10574 10572 10570 10570 10570 10576 10580 10577 10576 10579 10578 10576 10573 10569 10569 10569 10565 10563 10564 10563 10562 10561 10561 10560 10557 10555 10554
10422 10424 10428 10433 10436 10436 10438 10443 10448 10451 10454 10458 10461 10466 10469 10475 10486 10493 10494 10497 10500 10503 10507 10511 10514 10515 10515 10516 10520 10523 10525 10526 10528 10532 10536 10539 10542 10542 10541 10541 10542 10543 10544 10544 10543 10540 10541 10547 10554 10558 10560 10561 10560 10561 10561 10558 10558 10563 10568 10567 10564 10563 10561 10558 10558 10562 10563 10563 10568 10571 10564 10559 10562 10559 10555 10558 10557 10552 10551 10551 10551 10551 10550 10550 10548 10546 10544 10542
10408 10412 10418 10423 10424 10425 10429 10435 10440 10443 10447 10448 10450 10456 10462 10468 10473 10476 10480 10487 10491 10493 10496 10497 10500 10503 10505 10509 10511 10513 10514 10515 10516 10520 10524 10527 10530 10531 10530 10530 10530 10532 10533 10533 10532 10531 10531 10538 10546 10548 10547 10548 10549 10550 10552 10551 10551 10555 10558 10558 10556 10552 10548 10547 10549 10552 10549 10548 10559 10561 10547 10544 10553 10547 10539 10543 10543 10538 10537 10539 10541 10541 10539 10538 10536 10533 10531 10529
10396 10403 10409 10412 10412 10414 10420 10428 10432 10434 10437 10437 10438 10445 10453 10457 10461 10464 10469 10474 10479 10482 10482 10483 10488 10493 10496 10499 10499 10499 10502 10502 10504 10509 10512 10515 10518 10520 10520 10520 10519 10521 10522 10521 10521 10521 10522 10527 10535 10537 10536 10537 10539 10539 10542 10544 10544 10546 10549 10549 10546 10542 10539 10540 10541 10541 10536 10535 10543 10545 10536 10539 10545 10535 10524 10525 10525 10523 10525 10528 10529 10528 10526 10525 10523 10520 10518 10515
10384 10392 10397 10399 10402 10406 10411 10418 10420 10420 10424 10426 10427 10433 10441 10446 10451 10455 10457 10460 10464 10468 10469 10472 10478 10482 10484 10486 10486 10486 10490 10491 10493 10498 10500 10501 10504 10506 10507 10507 10508 10510 10511 10510 10510 10511 10512 10516 10521 10523 10524 10527 10528 10530 10533 10534 10535 10537 10538 10538 10537 10534 10533 10534 10532 10526 10522 10523 10528 10529 10528 10535 10536 10522 10510 10508 10509 10510 10513 10516 10515 10513 10511 10511 10508 10506 10503 10499
10373 10380 10384 10387 10391 10395 10400 10405 10407 10408 10412 10415 10417 10421 10428 10434 10440 10443 10445 10448 10452 10456 10458 10462 10467 10470 10472 10474 10474 10476 10479 10480 10482 10486 10487 10488 10490 10492 10493 10493 10495 10497 10498 10499 10500 10500 10502 10505 10508 10509 10508 10512 10518 10520 10519 10521 10523 10525 10530 10533 10531 10527 10524 10521 10516 10512 10510 10514 10516 10513 10517 10527 10523 10507 10496 10496 10499 10499 10499 10500 10500 10498 10497 10496 10494 10491 10487 10483
10360 10367 10371 10374 10378 10383 10387 10392 10395 10397 10399 10403 10407 10412 10416 10422 10428 10431 10433 10436 10440 10444 10447 10450 10454 10457 10458 10460 10462 10464 10467 10469 10471 10474 10475 10476 10478 10480 10481 10481 10483 10485 10485 10486 10487 10489 10491 10493 10495 10494 10491 10496 10504 10504 10504 10508 10507 10511 10525 10531 10524 10516 10509 10502 10501 10504 10503 10502 10501 10499 10506 10512 10505 10492 10488 10487 10487 10486 10486 10486 10485 10484 10483 10482 10479 10474 10470 10467
10345 10352 10358 10360 10364 10368 10374 10378 10382 10383 10386 10391 10396 10401 10405 10410 10415 10418 10421 10424 10427 10432 10435 10438 10442 10444 10446 10449 10452 10453 10455 10458 10460 10462 10465 10467 10468 10469 10470 10471 10472 10473 10474 10474 10474 10476 10477 10479 10481 10480 10477 10480 10485 10486 10488 10487 10486 10502 10525 10525 10508 10498 10492 10489 10494 10497 10491 10486 10485 10487 10492 10493 10486 10480 10478 10475 10472 10472 10472 10472 10471 10471 10470 10466 10463 10459 10455 10452